Location: StarHub Observatory
(35.2598°N, 77.5855°W)
Time: 11:14:05
(UTC-05:00)

Tiangong - Pass Details

Date: 14 December 2021
Orbit: 383 x 386 km, 41.5° (Epoch: 19 January)

Event Time Altitude Azimuth Distance (km) Brightness Sun altitude
Rises 18:51:40 0° 295° (WNW) 2,276 5.8 -22.2°
Reaches altitude 10° 18:53:54 10° 306° (NW) 1,418 4.4 -22.7°
Enters shadow 18:55:12 19° 322° (NW) 991 3.4 -22.9°
